Location: Deneb Observatory
(47.2267°N, 100.4953°W)
Time: 06:13:40
(UTC-06:00)

Amateur Radio Satellites - All Passes

Search period start: 19 December 2014 05:43
Search period end: 20 December 2014 05:43
Location: Deneb Observatory, 47.2267°N, 100.4953°W

Satellite Date Start Highest point End Downlink Frequencies (MHz)
Time Altitude Azimuth
MOZHAYETS 4 19 Dec 05:48:13 05:51:59 24° 267° (W) 05:55:48
Cubesat XI-IV 19 Dec 06:17:20 06:21:50 27° 94° (E) 06:26:19 437.490
GONETS M04 19 Dec 06:28:25 06:37:14 79° 96° (E) 06:46:05
STRAND 1 19 Dec 06:34:24 06:39:31 83° 74° (ENE) 06:44:40 437.568
VERMONT LUNAR 19 Dec 06:40:44 06:43:47 27° 180° (S) 06:46:50 437.305
AO-7 19 Dec 06:43:01 06:50:37 41° 304° (WNW) 06:58:12 29.400- 29.500
PHONESAT 2.4 19 Dec 06:46:26 06:49:34 28° 176° (S) 06:52:43 2401.200-2431.200
SO-50 19 Dec 06:49:14 06:54:05 66° 237° (WSW) 06:58:56 436.795
CUTE-I 19 Dec 06:50:42 06:55:53 51° 100° (E) 07:01:03 437.470
CUBESAT XI-V 19 Dec 07:05:30 07:10:00 46° 262° (W) 07:14:30 437.345
JAS-2 19 Dec 07:06:04 07:11:19 34° 297° (WNW) 07:16:06 435.910
PRISM 19 Dec 07:10:29 07:13:23 18° 268° (W) 07:16:18 437.425
Cubesat XI-IV 19 Dec 07:57:04 08:02:08 46° 292° (WNW) 08:07:11 437.490
HO-68 19 Dec 08:10:45 08:14:58 16° 87° (E) 08:19:08 435.675
STRAND 1 19 Dec 08:16:43 08:19:22 14° 272° (W) 08:22:01 437.568
VERMONT LUNAR 19 Dec 08:18:57 08:21:33 19° 196° (SSW) 08:24:09 437.305
PHONESAT 2.4 19 Dec 08:24:50 08:27:44 23° 193° (SSW) 08:30:38 2401.200-2431.200
CUTE 1.7 + AOD 2 19 Dec 08:27:20 08:29:04 12° 88° (E) 08:30:47 437.475
GONETS M04 19 Dec 08:27:48 08:35:04 28° 299° (WNW) 08:42:23
CUTE-I 19 Dec 08:31:20 08:35:40 26° 299° (WNW) 08:40:00 437.470
DOVE 4 19 Dec 08:36:46 08:37:33 10° 87° (E) 08:38:20 437.250
AO-7 19 Dec 08:38:04 08:41:09 13° 327° (NNW) 08:44:13 29.400- 29.500
UNISAT 6 19 Dec 08:51:08 08:52:32 11° 56° (NE) 08:53:57 437.425
BRITE-PL 19 Dec 09:04:20 09:08:32 34° 97° (E) 09:13:01 437.365/2234.400
DUCHIFAT 1 19 Dec 09:11:01 09:12:03 11° 57° (ENE) 09:13:06 145.980
CINEMA 3 19 Dec 09:12:17 09:14:56 15° 89° (E) 09:17:38 145.822/145.860
ANTELSAT 19 Dec 09:20:39 09:23:56 21° 62° (ENE) 09:27:18 437.575/2403.000
QB50P2 19 Dec 09:22:01 09:24:17 14° 60° (ENE) 09:26:34 145.880/145.840
AAUSAT CUBESAT 2 19 Dec 09:22:32 09:26:15 29° 95° (E) 09:29:56 437.432
POLYITAN 1 19 Dec 09:29:46 09:32:28 17° 61° (ENE) 09:35:11 437.675
CANX-2 19 Dec 09:30:09 09:34:26 57° 100° (E) 09:38:41 2200.000
NANOSAT C BR1 19 Dec 09:33:15 09:36:05 18° 62° (ENE) 09:38:55 145.865
GOMX 1 19 Dec 09:38:44 09:43:18 53° 100° (E) 09:48:11 467.674
DANDE 19 Dec 09:40:28 09:43:02 18° 82° (E) 09:46:06 436.750
QB50P1 19 Dec 09:46:44 09:50:06 24° 65° (ENE) 09:53:28 145.935-145.965
UWE-3 19 Dec 09:47:16 09:50:17 17° 90° (E) 09:53:21 435.000/436.395/437.385
O/OREOS (USA 219) 19 Dec 09:49:53 09:53:10 19° 49° (NE) 09:56:27 437.305
FUNcube-1 19 Dec 09:50:45 09:53:27 16° 90° (E) 09:56:10 145.935
TIGRISAT 19 Dec 09:56:08 10:00:15 42° 69° (ENE) 10:04:29 435.000
COMPASS 1 19 Dec 09:56:23 10:00:40 73° 102° (ESE) 10:04:55 437.405
HO-68 19 Dec 09:56:34 10:03:47 81° 106° (ESE) 10:10:56 435.675
SEEDS 19 Dec 09:59:48 10:04:08 88° 283° (WNW) 10:08:25 437.485
CUTE 1.7 + AOD 2 19 Dec 10:01:12 10:05:32 75° 285° (WNW) 10:09:49 437.475
AISAT 19 Dec 10:03:32 10:04:45 11° 87° (E) 10:05:58 437.250
DX 1 19 Dec 10:07:14 10:11:09 32° 97° (E) 10:15:02 434.975-435.025
DOVE 4 19 Dec 10:11:15 10:15:57 82° 103° (ESE) 10:20:55 437.250
POPSAT HIP 1 19 Dec 10:14:28 10:18:27 43° 70° (ENE) 10:22:27 437.405
MaSat-1 19 Dec 10:14:48 10:17:03 52° 301° (WNW) 10:19:15 437.345
DELFI C3 19 Dec 10:22:15 10:26:18 52° 100° (E) 10:30:19 145.870
UNISAT 6 19 Dec 10:24:10 10:28:32 82° 75° (ENE) 10:33:03 437.425
RS-15 19 Dec 10:24:43 10:27:37 11° 92° (E) 10:30:31 29.354- 29.394
50 SAT 19 Dec 10:25:35 10:28:07 16° 90° (E) 10:30:39 437.505
Oscar 11 19 Dec 10:32:10 10:36:34 78° 103° (ESE) 10:40:56 145.826/435.025
HUMSAT D 19 Dec 10:35:12 10:38:47 25° 94° (E) 10:42:22 437.325/437.525
CUSAT 1 19 Dec 10:37:24 10:41:04 87° 282° (WNW) 10:46:05 437.405
UKube-1 19 Dec 10:39:44 10:44:04 67° 103° (ESE) 10:48:22 .
YUBILEINY 19 Dec 10:40:22 10:48:26 40° 68° (ENE) 10:56:27 435.215
CUBEBUG 2 19 Dec 10:41:15 10:45:49 65° 101° (ESE) 10:50:30 437.445
BRITE-PL 19 Dec 10:43:01 10:47:01 31° 292° (WNW) 10:51:17 437.365/2234.400
DUCHIFAT 1 19 Dec 10:43:01 10:47:13 86° 75° (ENE) 10:51:27 145.980
CINEMA 3 19 Dec 10:47:56 10:52:35 73° 286° (WNW) 10:57:26 145.822/145.860
BUGSAT 1 19 Dec 10:49:26 10:53:32 83° 75° (ENE) 10:57:38 437.445
ESTCUBE 1 19 Dec 10:53:28 10:56:09 15° 90° (E) 10:58:48 437.505/2401.250
VELOX 1 19 Dec 10:55:25 10:59:30 35° 97° (E) 11:03:33 145.980
QB50P2 19 Dec 10:55:29 10:59:41 70° 258° (WSW) 11:03:56 145.880/145.840
ANTELSAT 19 Dec 10:56:12 11:00:25 48° 261° (W) 11:04:47 437.575/2403.000
AAUSAT CUBESAT 2 19 Dec 10:58:10 11:01:54 30° 293° (WNW) 11:05:36 437.432
ZACube-1 19 Dec 10:58:27 11:02:58 71° 102° (ESE) 11:07:32 437.345
POLYITAN 1 19 Dec 11:03:52 11:08:00 56° 259° (W) 11:12:11 437.675
CANX-2 19 Dec 11:07:06 11:09:57 17° 298° (WNW) 11:12:48 2200.000
NANOSAT C BR1 19 Dec 11:07:29 11:11:36 52° 260° (W) 11:15:44 145.865
GOMX 1 19 Dec 11:17:40 11:21:09 21° 296° (WNW) 11:24:48 467.674
QB50P1 19 Dec 11:21:54 11:25:49 37° 262° (W) 11:29:45 145.935-145.965
DANDE 19 Dec 11:22:37 11:25:59 36° 292° (WNW) 11:30:25 436.750
UWE-3 19 Dec 11:22:42 11:27:11 59° 288° (WNW) 11:31:44 435.000/436.395/437.385
FUNcube-1 19 Dec 11:25:45 11:30:12 64° 287° (WNW) 11:34:43 145.935
O/OREOS (USA 219) 19 Dec 11:28:32 11:33:00 62° 249° (WSW) 11:37:28 437.305
Oscar 19 19 Dec 11:29:17 11:31:14 12° 53° (NE) 11:33:12 437.125/150
COMPASS 1 19 Dec 11:33:38 11:35:50 14° 300° (WNW) 11:38:02 437.405
TIGRISAT 19 Dec 11:33:51 11:37:13 22° 268° (W) 11:40:40 435.000
AISAT 19 Dec 11:37:32 11:42:00 85° 285° (WNW) 11:46:26 437.250
SEEDS 19 Dec 11:37:51 11:39:16 12° 302° (WNW) 11:40:41 437.485
DX 1 19 Dec 11:43:35 11:47:19 29° 295° (WNW) 11:51:03 434.975-435.025
HO-68 19 Dec 11:45:12 11:50:46 25° 307° (NW) 11:56:20 435.675
CUBEBUG 1 19 Dec 11:48:57 11:53:11 50° 100° (E) 11:57:23 437.445
DOVE 4 19 Dec 11:50:35 11:53:11 15° 300° (WNW) 11:55:52 437.250
POPSAT HIP 1 19 Dec 11:51:29 11:54:34 20° 268° (W) 11:57:40 437.405
DELFI C3 19 Dec 11:58:28 12:01:12 17° 298° (WNW) 12:03:56 145.870
50 SAT 19 Dec 11:59:37 12:03:41 54° 288° (WNW) 12:07:44 437.505
UNISAT 6 19 Dec 12:04:36 12:06:00 11° 273° (W) 12:07:24 437.425
Oscar 11 19 Dec 12:09:57 12:12:09 14° 301° (WNW) 12:14:21 145.826/435.025
HUMSAT D 19 Dec 12:10:42 12:14:40 36° 291° (WNW) 12:18:38 437.325/437.525
UKube-1 19 Dec 12:17:10 12:19:44 16° 301° (WNW) 12:22:17 .
CUBEBUG 2 19 Dec 12:19:03 12:22:05 18° 299° (WNW) 12:25:10 437.445
CUSAT 1 19 Dec 12:24:31 12:25:35 11° 310° (NW) 12:26:42 437.405
RS-15 19 Dec 12:26:41 12:37:11 56° 115° (ESE) 12:47:43 29.354- 29.394
CINEMA 3 19 Dec 12:27:47 12:29:02 11° 303° (WNW) 12:30:19 145.822/145.860
ESTCUBE 1 19 Dec 12:28:59 12:33:27 63° 288° (WNW) 12:37:53 437.505/2401.250
VELOX 1 19 Dec 12:32:15 12:35:57 27° 295° (WNW) 12:39:40 145.980
ZACube-1 19 Dec 12:36:09 12:38:50 16° 300° (WNW) 12:41:33 437.345
YUBILEINY 19 Dec 12:37:11 12:45:31 53° 271° (W) 12:53:49 435.215
SPROUT 19 Dec 13:02:35 13:06:54 74° 103° (ESE) 13:11:12 437.525
TISAT 1 19 Dec 13:03:55 13:08:09 81° 104° (ESE) 13:12:23 437.305
Oscar 19 19 Dec 13:04:33 13:09:39 70° 72° (ENE) 13:14:49 437.125/150
Gurwin Techsat 1B 19 Dec 13:05:47 13:09:40 21° 59° (ENE) 13:13:34 435.225
SWISSCUBE 19 Dec 13:12:33 13:15:54 19° 91° (E) 13:19:14 437.505
ITUPSAT 1 19 Dec 13:12:36 13:15:44 17° 90° (E) 13:18:51 437.325
BEESAT 3 19 Dec 13:15:54 13:17:47 13° 109° (ESE) 13:19:42 437.485
AISAT 19 Dec 13:16:20 13:17:55 12° 304° (WNW) 13:19:30 437.250
ITAMSAT 1 19 Dec 13:17:39 13:22:25 38° 66° (ENE) 13:27:11 435.822/435.867
CUBEBUG 1 19 Dec 13:26:08 13:29:14 20° 298° (WNW) 13:32:19 437.445
BEESAT 19 Dec 13:37:17 13:41:27 29° 95° (E) 13:45:36 436.000
BEESAT 2 19 Dec 13:52:39 13:56:07 27° 116° (ESE) 13:59:39 435.950
HORYU 2 19 Dec 13:58:30 14:01:52 21° 62° (ENE) 14:05:15 437.375
AO-7 19 Dec 14:01:49 14:08:26 28° 49° (NE) 14:15:05 29.400- 29.500
M-CUBED/EXP-1 PRIME 19 Dec 14:05:22 14:08:38 20° 96° (E) 14:11:41 437.505
RS-15 19 Dec 14:39:00 14:49:39 55° 321° (NW) 15:00:31 29.354- 29.394
SPROUT 19 Dec 14:40:13 14:42:27 14° 301° (WNW) 14:44:41 437.525
GONETS M04 19 Dec 14:41:20 14:43:43 11° 44° (NE) 14:46:05
TISAT 1 19 Dec 14:41:33 14:43:23 13° 302° (WNW) 14:45:13 437.305
PCSat 19 Dec 14:43:30 14:48:48 59° 118° (ESE) 14:54:09 145.827
Gurwin Techsat 1B 19 Dec 14:43:53 14:49:10 66° 258° (WSW) 14:54:28 435.225
Oscar 19 19 Dec 14:46:12 14:49:32 17° 271° (W) 14:52:53 437.125/150
ITUPSAT 1 19 Dec 14:49:20 14:54:04 62° 288° (WNW) 14:58:45 437.325
SWISSCUBE 19 Dec 14:49:27 14:54:08 57° 289° (WNW) 14:58:47 437.505
AIST 2 19 Dec 14:50:37 14:54:42 47° 121° (ESE) 14:58:51 435.215
BEESAT 3 19 Dec 14:51:15 14:55:22 79° 308° (NW) 14:59:34 437.485
ITAMSAT 1 19 Dec 14:57:21 15:01:57 32° 264° (W) 15:06:35 435.822/435.867
STARS 19 Dec 15:01:37 15:05:32 30° 96° (E) 15:09:26 437.465
KKS-1 19 Dec 15:02:15 15:06:32 43° 99° (E) 15:10:48 437.445
AUBIESAT-1 19 Dec 15:14:47 15:19:18 89° 109° (ESE) 15:23:24 437.475
BEESAT 19 Dec 15:14:59 15:19:21 36° 293° (WNW) 15:23:41 436.000
ISS 19 Dec 15:17:43 15:20:55 51° 148° (SSE) 15:24:09 145.825
BEESAT 2 19 Dec 15:30:17 15:34:13 41° 315° (NW) 15:38:13 435.950
HORYU 2 19 Dec 15:33:54 15:38:14 48° 260° (W) 15:42:36 437.375
JAS-2 19 Dec 15:35:01 15:41:25 32° 61° (ENE) 15:47:20 435.910
M-CUBED/EXP-1 PRIME 19 Dec 15:39:35 15:43:58 48° 296° (WNW) 15:47:58 437.505
AO-7 19 Dec 15:51:58 16:00:19 87° 251° (WSW) 16:08:45 29.400- 29.500
Cubesat XI-IV 19 Dec 16:07:08 16:08:30 11° 51° (NE) 16:09:52 437.490
PCSat 19 Dec 16:27:51 16:32:34 30° 318° (NW) 16:37:20 145.827
AIST 2 19 Dec 16:29:50 16:33:32 27° 320° (NW) 16:37:16 435.215
BEESAT 3 19 Dec 16:31:34 16:34:15 16° 329° (NNW) 16:36:57 437.485
GONETS M04 19 Dec 16:35:01 16:43:26 47° 71° (ENE) 16:51:43
CUTE-I 19 Dec 16:38:02 16:41:41 19° 58° (ENE) 16:45:20 437.470
STARS 19 Dec 16:38:05 16:42:01 32° 293° (WNW) 16:45:56 437.465
KKS-1 19 Dec 16:39:26 16:42:56 23° 297° (WNW) 16:46:26 437.445
AUBIESAT-1 19 Dec 16:51:15 16:53:30 14° 310° (NW) 16:55:41 437.475
AIST 1 19 Dec 16:53:16 16:57:26 44° 93° (E) 17:01:36
ISS 19 Dec 16:54:23 16:57:34 45° 347° (NNW) 17:00:46 145.825
RS-15 19 Dec 16:55:32 17:05:03 32° 353° (N) 17:14:48 29.354- 29.394
BEESAT 2 19 Dec 17:12:11 17:13:36 11° 337° (NNW) 17:15:01 435.950
JAS-2 19 Dec 17:18:31 17:26:06 64° 259° (WSW) 17:33:02 435.910
MOZHAYETS 4 19 Dec 17:39:14 17:43:52 66° 101° (ESE) 17:48:27
Cubesat XI-IV 19 Dec 17:42:19 17:47:33 61° 70° (ENE) 17:52:48 437.490
AO-7 19 Dec 17:48:25 17:54:15 21° 271° (W) 18:00:10 29.400- 29.500
MaSat-1 19 Dec 18:09:49 18:11:47 23° 55° (NE) 18:13:49 437.345
CUTE-I 19 Dec 18:15:52 18:21:11 75° 256° (WSW) 18:26:32 437.470
PCSat 19 Dec 18:16:22 18:17:52 11° 343° (NNW) 18:19:22 145.827
ISS 19 Dec 18:31:28 18:34:35 38° 7° (N) 18:37:41 145.825
AIST 1 19 Dec 18:32:04 18:35:20 20° 292° (WNW) 18:38:35
GONETS M04 19 Dec 18:32:05 18:40:15 46° 273° (W) 18:48:21
STRAND 1 19 Dec 18:42:33 18:46:28 22° 92° (E) 18:50:22 437.568
HO-68 19 Dec 18:43:20 18:48:19 21° 50° (NE) 18:53:17 435.675
PRISM 19 Dec 18:48:59 18:53:04 52° 101° (E) 18:57:06 437.425
CUBESAT XI-V 19 Dec 18:59:13 19:03:27 35° 96° (E) 19:07:39 437.345
JAS-2 19 Dec 19:09:14 19:12:14 13° 277° (W) 19:15:10 435.910
RS-15 19 Dec 19:10:49 19:21:10 41° 27° (NNE) 19:31:52 29.354- 29.394
MOZHAYETS 4 19 Dec 19:17:36 19:20:36 17° 300° (WNW) 19:23:35
SEEDS 19 Dec 19:22:21 19:24:06 12° 58° (ENE) 19:25:51 437.485
CUTE 1.7 + AOD 2 19 Dec 19:23:40 19:26:00 15° 60° (ENE) 19:28:21 437.475
Cubesat XI-IV 19 Dec 19:24:06 19:28:03 21° 269° (W) 19:32:02 437.490
CUSAT 1 19 Dec 19:28:48 19:34:39 25° 63° (ENE) 19:41:07 437.405
MaSat-1 19 Dec 19:43:55 19:44:58 12° 250° (WSW) 19:46:03 437.345
DOVE 4 19 Dec 19:45:37 19:47:42 14° 59° (ENE) 19:49:49 437.250
Oscar 11 19 Dec 19:57:11 19:58:45 12° 57° (ENE) 20:00:18 145.826/435.025
CUTE-I 19 Dec 20:01:08 20:02:10 11° 275° (W) 20:03:13 437.470
UKube-1 19 Dec 20:05:10 20:06:38 12° 56° (ENE) 20:08:06 .
ISS 19 Dec 20:08:05 20:11:23 83° 206° (SSW) 20:14:39 145.825
DANDE 19 Dec 20:14:48 20:21:36 40° 70° (ENE) 20:29:28 436.750
AAUSAT CUBESAT 2 19 Dec 20:16:58 20:20:39 30° 67° (ENE) 20:24:22 437.432
CINEMA 3 19 Dec 20:17:56 20:20:44 18° 61° (ENE) 20:23:35 145.822/145.860
BRITE-PL 19 Dec 20:19:04 20:23:06 50° 72° (ENE) 20:27:08 437.365/2234.400
STRAND 1 19 Dec 20:21:01 20:25:59 54° 290° (WNW) 20:30:55 437.568
PRISM 19 Dec 20:25:26 20:28:14 18° 299° (WNW) 20:31:00 437.425
ZACube-1 19 Dec 20:25:45 20:26:25 10° 56° (NE) 20:27:04 437.345
CANX-2 19 Dec 20:26:11 20:30:24 61° 73° (ENE) 20:34:39 2200.000
HO-68 19 Dec 20:27:50 20:35:02 82° 71° (ENE) 20:42:14 435.675
BEESAT 2 19 Dec 20:32:16 20:34:07 13° 26° (NNE) 20:35:58 435.950
CUBESAT XI-V 19 Dec 20:36:51 20:40:48 29° 294° (WNW) 20:44:44 437.345
UWE-3 19 Dec 20:48:13 20:51:15 20° 62° (ENE) 20:54:21 435.000/436.395/437.385
FUNcube-1 19 Dec 20:50:21 20:53:10 18° 62° (ENE) 20:56:02 145.935
GOMX 1 19 Dec 20:50:46 20:54:54 78° 75° (ENE) 20:59:06 467.674
COMPASS 1 19 Dec 20:50:55 20:55:07 75° 75° (ENE) 20:59:23 437.405
SEEDS 19 Dec 20:55:02 20:59:17 85° 257° (WSW) 21:03:36 437.485
CUTE 1.7 + AOD 2 19 Dec 20:57:08 21:01:23 70° 258° (WSW) 21:05:42 437.475
AISAT 19 Dec 21:04:15 21:07:01 17° 60° (ENE) 21:09:48 437.250
DX 1 19 Dec 21:05:52 21:09:58 42° 69° (ENE) 21:14:05 434.975-435.025
SO-50 19 Dec 21:08:06 21:11:21 20° 112° (ESE) 21:14:41 436.795
CUSAT 1 19 Dec 21:11:01 21:18:29 89° 260° (W) 21:27:01 437.405
DELFI C3 19 Dec 21:13:45 21:17:44 50° 72° (ENE) 21:21:45 145.870
50 SAT 19 Dec 21:17:33 21:20:02 16° 62° (ENE) 21:22:33 437.505
DOVE 4 19 Dec 21:20:50 21:24:57 69° 258° (WSW) 21:29:10 437.250
RS-15 19 Dec 21:23:41 21:34:57 87° 235° (SW) 21:46:44 29.354- 29.394
Oscar 11 19 Dec 21:29:53 21:34:13 88° 76° (ENE) 21:38:36 145.826/435.025
BEESAT 3 19 Dec 21:30:30 21:34:07 27° 40° (NE) 21:37:42 437.485
HUMSAT D 19 Dec 21:30:49 21:34:17 26° 66° (ENE) 21:37:48 437.325/437.525
AIST 2 19 Dec 21:31:50 21:34:48 18° 32° (NNE) 21:37:45 435.215
UKube-1 19 Dec 21:37:45 21:42:06 86° 75° (ENE) 21:46:28 .
CUBEBUG 2 19 Dec 21:43:00 21:47:11 77° 75° (ENE) 21:51:29 437.445
PCSat 19 Dec 21:45:28 21:49:40 22° 36° (NE) 21:53:51 145.827
ISS 19 Dec 21:45:33 21:47:32 15° 224° (SW) 21:49:30 145.825
AAUSAT CUBESAT 2 19 Dec 21:52:39 21:56:18 28° 265° (W) 22:00:00 437.432
CINEMA 3 19 Dec 21:53:31 21:57:34 52° 260° (W) 22:01:45 145.822/145.860
ESTCUBE 1 19 Dec 21:56:10 21:59:39 22° 63° (ENE) 22:03:09 437.505/2401.250
VELOX 1 19 Dec 21:56:17 22:00:31 48° 70° (ENE) 22:04:47 145.980
ZACube-1 19 Dec 21:57:50 22:02:01 81° 75° (ENE) 22:06:19 437.345
DANDE 19 Dec 21:58:07 22:05:16 55° 266° (W) 22:13:33 436.750
BRITE-PL 19 Dec 21:59:25 22:01:59 16° 270° (W) 22:04:34 437.365/2234.400
CANX-2 19 Dec 22:04:21 22:06:45 15° 271° (W) 22:09:11 2200.000
BEESAT 2 19 Dec 22:09:17 22:13:23 48° 47° (NE) 22:17:25 435.950
UNISAT 6 19 Dec 22:14:28 22:17:13 15° 89° (E) 22:19:58 437.425
HO-68 19 Dec 22:18:15 22:23:32 22° 270° (W) 22:28:51 435.675
UWE-3 19 Dec 22:23:28 22:27:29 46° 261° (W) 22:31:38 435.000/436.395/437.385
FUNcube-1 19 Dec 22:25:03 22:29:08 53° 260° (W) 22:33:20 145.935
TISAT 1 19 Dec 22:27:06 22:28:29 12° 58° (ENE) 22:29:53 437.305
DUCHIFAT 1 19 Dec 22:27:27 22:28:49 11° 88° (E) 22:30:11 145.980
SPROUT 19 Dec 22:27:36 22:28:43 11° 57° (ENE) 22:29:50 437.525
COMPASS 1 19 Dec 22:29:52 22:31:23 12° 273° (W) 22:32:55 437.405
GOMX 1 19 Dec 22:33:04 22:33:40 10° 273° (W) 22:34:17 467.674
AISAT 19 Dec 22:38:48 22:43:11 64° 258° (WSW) 22:47:36 437.250
QB50P2 19 Dec 22:39:13 22:41:51 16° 90° (E) 22:44:29 145.880/145.840
DX 1 19 Dec 22:43:03 22:46:24 21° 267° (W) 22:49:45 434.975-435.025
ANTELSAT 19 Dec 22:45:16 22:49:24 29° 95° (E) 22:53:32 437.575/2403.000
SO-50 19 Dec 22:46:54 22:51:26 63° 311° (NW) 22:56:09 436.795
POLYITAN 1 19 Dec 22:47:20 22:50:26 19° 92° (E) 22:53:32 437.675
CUBEBUG 1 19 Dec 22:48:13 22:52:32 63° 73° (ENE) 22:56:51 437.445
NANOSAT C BR1 19 Dec 22:50:22 22:53:32 20° 93° (E) 22:56:42 145.865
DELFI C3 19 Dec 22:50:39 22:53:18 17° 269° (W) 22:55:59 145.870
50 SAT 19 Dec 22:50:55 22:54:51 55° 260° (W) 22:58:52 437.505
CUSAT 1 19 Dec 22:55:23 23:00:54 22° 276° (W) 23:06:54 437.405
QB50P1 19 Dec 23:04:14 23:07:55 27° 95° (E) 23:11:34 145.935-145.965
HUMSAT D 19 Dec 23:06:17 23:10:00 32° 264° (W) 23:13:47 437.325/437.525
BEESAT 3 19 Dec 23:08:29 23:12:30 46° 240° (WSW) 23:16:27 437.485
AIST 2 19 Dec 23:09:45 23:14:05 84° 53° (NE) 23:18:21 435.215
Oscar 11 19 Dec 23:10:36 23:11:02 10° 274° (W) 23:11:29 145.826/435.025
UKube-1 19 Dec 23:18:02 23:18:52 11° 272° (W) 23:19:43 .
TIGRISAT 19 Dec 23:21:04 23:25:44 63° 101° (ESE) 23:30:25 435.000
CUBEBUG 2 19 Dec 23:23:16 23:24:31 11° 273° (W) 23:25:45 437.445
PCSat 19 Dec 23:28:22 23:33:50 90° 238° (WSW) 23:39:15 145.827
ESTCUBE 1 19 Dec 23:31:53 23:36:15 46° 261° (W) 23:40:39 437.505/2401.250
POPSAT HIP 1 19 Dec 23:32:29 23:36:40 53° 100° (E) 23:40:51 437.405
VELOX 1 19 Dec 23:34:09 23:37:22 20° 268° (W) 23:40:36 145.980
RS-15 19 Dec 23:37:14 23:45:52 27° 258° (WSW) 23:54:48 29.354- 29.394
ZACube-1 19 Dec 23:38:09 23:39:02 11° 274° (W) 23:39:55 437.345
DANDE 19 Dec 23:45:07 23:47:33 12° 283° (WNW) 23:50:05 436.750
YUBILEINY 19 Dec 23:45:35 23:53:29 40° 85° (E) 00:01:21 435.215
BEESAT 2 19 Dec 23:48:05 23:51:22 22° 246° (WSW) 23:54:37 435.950
UNISAT 6 19 Dec 23:49:47 23:54:28 70° 287° (WNW) 23:59:10 437.425
TISAT 1 19 Dec 23:59:27 00:03:40 89° 252° (WSW) 00:07:54 437.305
SPROUT 19 Dec 23:59:49 00:04:06 84° 75° (ENE) 00:08:24 437.525
DUCHIFAT 1 20 Dec 00:00:58 00:05:13 78° 285° (WNW) 00:09:28 145.980
BUGSAT 1 20 Dec 00:04:20 00:08:24 86° 283° (WNW) 00:12:28 437.445
QB50P2 20 Dec 00:13:56 00:18:07 56° 288° (WNW) 00:22:18 145.880/145.840
ANTELSAT 20 Dec 00:21:57 00:26:14 36° 292° (WNW) 00:30:32 437.575/2403.000
SWISSCUBE 20 Dec 00:22:03 00:26:16 31° 65° (ENE) 00:30:29 437.505
ITUPSAT 1 20 Dec 00:22:16 00:26:24 29° 64° (ENE) 00:30:32 437.325
POLYITAN 1 20 Dec 00:22:31 00:26:37 46° 290° (WNW) 00:30:44 437.675
NANOSAT C BR1 20 Dec 00:25:35 00:29:37 43° 290° (WNW) 00:33:39 145.865
CUBEBUG 1 20 Dec 00:26:51 00:29:19 15° 270° (W) 00:31:48 437.445
SO-50 20 Dec 00:29:52 00:32:56 17° 333° (NNW) 00:36:03 436.795
AUBIESAT-1 20 Dec 00:32:04 00:36:11 28° 59° (ENE) 00:40:19 437.475
QB50P1 20 Dec 00:40:02 00:43:49 32° 293° (WNW) 00:47:35 145.935-145.965
BEESAT 20 Dec 00:46:45 00:51:21 48° 69° (ENE) 00:55:58 436.000
AIST 2 20 Dec 00:50:11 00:52:04 13° 251° (WSW) 00:53:56 435.215
M-CUBED/EXP-1 PRIME 20 Dec 00:56:21 01:01:01 47° 64° (ENE) 01:05:44 437.505
TIGRISAT 20 Dec 00:58:50 01:02:02 19° 299° (WNW) 01:05:16 435.000
POPSAT HIP 1 20 Dec 01:09:19 01:12:12 18° 298° (WNW) 01:15:05 437.405
PCSat 20 Dec 01:13:30 01:16:27 15° 256° (WSW) 01:19:24 145.827
Oscar 19 20 Dec 01:13:50 01:17:35 20° 91° (E) 01:21:19 437.125/150
UNISAT 6 20 Dec 01:29:23 01:30:25 11° 305° (NW) 01:31:27 437.425
SPROUT 20 Dec 01:39:58 01:40:47 10° 273° (W) 01:41:36 437.525
DUCHIFAT 1 20 Dec 01:40:07 01:40:20 10° 304° (WNW) 01:40:34 145.980
YUBILEINY 20 Dec 01:41:36 01:50:04 52° 287° (WNW) 01:58:33 435.215
BUGSAT 1 20 Dec 01:42:42 01:43:14 10° 303° (WNW) 01:43:45 437.445
O/OREOS (USA 219) 20 Dec 01:43:37 01:48:04 84° 114° (ESE) 01:52:33 437.305
SWISSCUBE 20 Dec 01:59:41 02:04:04 35° 263° (W) 02:08:28 437.505
ITUPSAT 1 20 Dec 01:59:42 02:04:10 38° 262° (W) 02:08:40 437.325
STARS 20 Dec 02:01:50 02:05:54 39° 68° (ENE) 02:10:00 437.465
KKS-1 20 Dec 02:03:31 02:07:51 58° 72° (ENE) 02:12:14 437.445
AUBIESAT-1 20 Dec 02:06:15 02:10:54 46° 256° (WSW) 02:15:37 437.475
BEESAT 20 Dec 02:25:42 02:29:26 22° 267° (W) 02:33:12 436.000
M-CUBED/EXP-1 PRIME 20 Dec 02:32:08 02:36:11 26° 262° (W) 02:40:17 437.505
Oscar 19 20 Dec 02:52:12 02:57:21 62° 289° (WNW) 03:02:28 437.125/150
Gurwin Techsat 1B 20 Dec 02:57:00 03:01:59 39° 97° (E) 03:06:56 435.225
AIST 1 20 Dec 02:58:14 03:00:57 16° 66° (ENE) 03:03:39
ITAMSAT 1 20 Dec 03:06:10 03:11:22 72° 103° (ESE) 03:16:31 435.822/435.867
MOZHAYETS 4 20 Dec 03:10:13 03:12:16 13° 57° (ENE) 03:14:19
HORYU 2 20 Dec 03:22:37 03:26:26 26° 94° (E) 03:30:13 437.375
O/OREOS (USA 219) 20 Dec 03:25:27 03:28:07 15° 314° (NW) 03:30:47 437.305
STARS 20 Dec 03:39:00 03:42:31 24° 266° (W) 03:46:05 437.465
KKS-1 20 Dec 03:42:08 03:44:53 16° 270° (W) 03:47:40 437.445
YUBILEINY 20 Dec 03:45:56 03:49:26 13° 313° (NW) 03:52:57 435.215
AO-7 20 Dec 03:50:46 03:57:32 26° 92° (E) 04:04:14 29.400- 29.500
SO-50 20 Dec 03:55:24 03:58:10 15° 23° (NNE) 04:00:58 436.795
VERMONT LUNAR 20 Dec 04:24:27 04:26:48 17° 161° (SSE) 04:29:10 437.305
JAS-2 20 Dec 04:27:38 04:30:25 14° 84° (E) 04:33:05 435.910
Oscar 19 20 Dec 04:34:22 04:35:41 11° 308° (NW) 04:37:00 437.125/150
AIST 1 20 Dec 04:34:48 04:39:00 54° 265° (W) 04:43:09
PHONESAT 2.4 20 Dec 04:35:18 04:37:30 15° 158° (SSE) 04:39:42 2401.200-2431.200
Gurwin Techsat 1B 20 Dec 04:37:10 04:41:52 33° 296° (WNW) 04:46:33 435.225
MOZHAYETS 4 20 Dec 04:44:07 04:48:46 87° 76° (ENE) 04:53:28
ITAMSAT 1 20 Dec 04:46:46 04:50:19 19° 302° (WNW) 04:53:52 435.822/435.867
HORYU 2 20 Dec 04:59:01 05:03:12 37° 292° (WNW) 05:07:21 437.375
